INTELSAT 19 (IS-19)

Last updated on Thu Oct 30 2025 00:02:49 GMT+0000 (Coordinated Universal Time)

1 38356U 12030A 25302.47058550 -.00000046 00000+0 00000+0 0 9996 2 38356 0.0151 277.4184 0002938 295.6209 160.4467 1.00272612 48137
UTC large
Height (km)
Speed (km/s)
/
Latitude / Longitude
Inclination (degrees)
Orbital Period (minutes)
Azimuth
Elevation
Range (km)
Doppler Factor

Next 0 passes for location: London (51.5072 / 0.1276)

Sorry there are no passes over London.